Hourly Data Report for November 13, 2017

VICTORIA UNIVERSITY CS
BRITISH COLUMBIA

48°27'25.200" N
123°18'16.600" W
60.10 m
1018598
71783
WYJ

Download Data

Hourly Data (November 2017)
Hourly Data Report for November 13, 2017
TIME
LST
Temp Definition
°C
Dew Point Definition
°C
Rel Hum Definition
%
Precip. Amount Definition
mm

Wind Dir Definition
10's deg

Wind Spd Definition
km/h
Visibility Definition
km
Stn Press Definition
kPa
Hmdx Definition


Wind Chill Definition


Weather Definition


00:00 9.2 7.7 90 0.0 12 9   99.31     LegendNANA
01:00 9.5 7.2 86 0.0 13 6   99.17     LegendNANA
02:00 9.0 7.8 92 0.9 14 3   99.14     LegendNANA
03:00 8.6 8.0 96 3.4 15 2   98.98     LegendNANA
04:00 8.6 7.4 92 0.0 12 4   99.01     LegendNANA
05:00 8.8 7.1 89 0.0 14 10   99.13     LegendNANA
06:00 8.7 7.4 92 1.3 15 10   99.19     LegendNANA
07:00 8.5 7.3 92 0.3 16 6   99.26     LegendNANA
08:00 8.8 4.3 73 0.5 20 15   99.43     LegendNANA
09:00 8.2 6.0 86 0.7 18 6   99.50     LegendNANA
10:00 9.6 4.8 72 0.3 15 7   99.51     LegendNANA
11:00 8.1 6.0 87 0.8 15 6   99.56     LegendNANA
12:00 9.3 7.2 87 1.1 14 4   99.44     LegendNANA
13:00 9.3 6.3 82 0.0 11 5   99.26     LegendNANA
14:00 8.7 5.9 82 0.0 13 8   99.11     LegendNANA
15:00 8.4 5.9 84 0.2 15 11   99.06     LegendNANA
16:00 8.1 6.1 87 0.9 15 11   99.16     LegendNANA
17:00 8.3 6.3 87 0.0 17 9   99.36     LegendNANA
18:00 8.5 7.8 96 1.7 23 3   99.58     LegendNANA
19:00 9.0 7.0 88 0.0 25 11   99.76     LegendNANA
20:00 8.8 6.7 87 0.5 25 18   99.93     LegendNANA
21:00 8.8 5.6 81 0.0 24 10   100.12     LegendNANA
22:00 8.9 5.7 80 0.0 25 6   100.28     LegendNANA
23:00 8.2 6.4 89 0.2 21 4   100.37     LegendNANA

Notes on Data Quality.

Legend

  • E = Estimated
  • M = Missing
  • NA = Not Available*
  • [empty] = Indicates an unobserved value
Date modified: